Home   Weather   Prince George   Past weeks

Flag for Canada Past Weather in Prince George, British Columbia, Canada — Yesterday and Last 2 Weeks

Now
46 °F

Sunny.


Feels Like: 42 °F
Forecast: 35 / 52 °F
Wind: 8 mph from Southwest

Location: Prince George

Current Time: Apr 28, 2017 at 11:11:27 am

Latest Report: Apr 28, 2017 at 10:00 am


Visibility: 9 mi

Pressure: 30.24 "Hg (28.20 "Hg at 573m altitude)

Humidity: 46%

Dew Point: 27 °F

Location of Prince GeorgeLocation

Past Weather in Prince George — Graph

°F

Prince George Temperature Yesterday

Maximum temperature yesterday: 54 °F (at 2:00 pm)
Minimum temperature yesterday: 36 °F (at 5:00 am)
Average temperature yesterday: 46 °F

High & Low Weather Summary for the Past Weeks

 TemperatureHumidityPressure
High57 °F (Apr 21, 3:00 pm)100% (Apr 13, 8:00 pm)30.41 "Hg (Apr 13, 8:00 pm)
Low23 °F (Apr 25, 6:00 am)21% (Apr 25, 6:00 pm)29.61 "Hg (Apr 26, 5:00 am)
Average40 °F71%29.95 "Hg
* Reported Apr 13 10:00 am — Apr 28 10:00 am, Prince George, Weather by CustomWeather, © 2017

Note: Actual official high and low records may vary slightly from our data, if they occured in-between our weather recording intervals... More about our weather records

Advertising

Prince George Weather History for the Previous 24 Hours

Scroll right to see more
 ConditionsComfort  
Time TempWeatherWind HumidityBarometerVisibility
10:00 am
Fri, Apr 28
46 °FSunny.8 mph46%30.24 "Hg9 mi
9:00 am43 °FSunny.8 mph53%30.24 "Hg9 mi
8:00 am39 °FSunny.8 mph61%30.23 "Hg9 mi
7:00 am34 °FSunny.8 mph75%30.23 "Hg9 mi
6:00 am28 °FSunny.7 mph80%30.22 "Hg9 mi
5:00 am32 °FClear.6 mph69%30.19 "Hg9 mi
4:00 am34 °FPassing clouds.7 mph70%30.17 "Hg9 mi
3:00 am39 °FPassing clouds.6 mph56%30.14 "Hg9 mi
2:00 am36 °FClear.3 mph60%30.13 "Hg9 mi
1:00 am39 °FPassing clouds.5 mph56%30.10 "Hg9 mi
12:00 am37 °FPassing clouds.8 mph65%30.07 "Hg9 mi
11:00 pm
Thu, Apr 27
41 °FPassing clouds.8 mph61%30.05 "Hg9 mi
10:00 pm43 °FPassing clouds.7 mph57%30.03 "Hg9 mi
9:00 pm46 °FPassing clouds.7 mph53%30.02 "Hg9 mi
8:00 pm50 °FMostly cloudy.16 mph43%29.98 "Hg9 mi
7:00 pm52 °FPassing clouds.10 mph41%29.97 "Hg9 mi
6:00 pm54 °FPartly sunny.15 mph41%29.94 "Hg9 mi
5:00 pm52 °FLight rain. Broken clouds.13 mph41%29.93 "Hg9 mi
4:10 pm54 °FPassing clouds.13 mph41%29.92 "Hg9 mi
3:55 pm50 °FLight rain. Passing clouds.13 mph47%29.93 "Hg9 mi
3:00 pm54 °FSunny.13 mph38%29.90 "Hg9 mi
2:35 pm52 °FBroken clouds.16 mph44%29.90 "Hg9 mi
2:00 pm54 °FScattered clouds.8 mph41%29.89 "Hg9 mi
1:26 pm50 °FPartly sunny.13 mph47%29.89 "Hg9 mi
1:07 pm50 °FLight rain. Mostly cloudy.12 mph47%29.89 "Hg9 mi
12:00 pm52 °FPartly sunny.9 mph44%29.88 "Hg9 mi
11:00 am48 °FMostly cloudy.7 mph50%29.88 "Hg9 mi
Weather by CustomWeather, © 2017

See weather overviewHow to use our weather pages